星链-30474 (STARLINK-30474 )

导读

STARLINK-30474是美国SpaceX公司星链星座卫星,于北京时间2023年9月20日由猎鹰9号火箭发射升空,属于星链6-17任务批次,是Starlink V2 Mini型号卫星。作为第二代星链的量产型号,它配备增强型相控阵天线与激光星间链路,运行在低地球轨道,可为全球提供高速低延迟宽带互联网服务,设计使用寿命5-7年,退役后将主动离轨在大气层完全销毁。

Basic Information
目录编号:
57897
目录名称:
STARLINK-30474
国际标识:
2023-146G
轨道中心:
EARTH
卫星名称:
星链-30474
卫星全名:
星链-30474 (STARLINK-30474 )
卫星状态:
在轨 (已飞行1080 天)
发射日期:
2023-09-20 UTC
国别 :
美国 (US)
星等 :
--
Orbit Information
数据来源 国际轨道数据
星历时间: 2026-09-04T18:32:51+0800
12小时前
查看轨道信息
半长轴: 6861.203km
偏心率: 0.0001771
轨道倾角: 43.006°
近地点辐角 278.005°
升交点赤经 24.728°
平近点角 82.060°
近地点: 481.85km
远地点: 484.282km
周期: 94.267分钟
每日圈数: 15.275746
Detailed Information
固有亮度:
5
最大亮度:
0.3
卫星平台:
Starlink v2.0 mini
覆盖范围:
全球
运营商:
太空探索技术公司
运营商所在国:
美国
制造商(研发单位):
太空探索技术公司
制造商所在国:
美国
使用方式:
暂无
Satellite Introduction
星链(Starlink)计划是由太空探索技术公司(SpaceX)提出的一个巨型低轨卫星互联网星座项目,计划在2019年至2024年间在太空搭建由约1.2万颗卫星组成的“星链”网络,其中1584颗将部署在地球上空550千米处的近地轨道,并从2020年开始工作。该卫星仍在工作。
2D Orbit Map
3D Orbit Map
Orbit Altitude Analysis Chart
Orbit Inclination Analysis Chart
Orbit Comprehensive Analysis Chart
View Comprehensive Chart
Conjunction Data List
Event ID Objects TCA Miss Dist (km) Collision Risk Probability Collision Risk Index (CRI) Action
CDM_260907-004505-789706-252721
2026-09-07T
00:45:32+0000
0.986 km
远距离
1.784314E-5 中风险 0.6
CDM_260907-021905-789706-252721
2026-09-07T
02:19:41+0000
1.389 km
极远距离
5.502032E-6 低风险 0.5
CDM_260905-040305-789706-309621
2026-09-05T
04:03:02+0000
2.369 km
极远距离
1.637734E-6 低风险 0.39
CDM_260830-061205-789706-267021
2026-08-30T
06:12:05+0000
2.392 km
极远距离
1.624685E-6 低风险 0.39
CDM_260906-070300-635005-789721
2026-09-06T
07:03:17+0000
2.401 km
极远距离
1.41615E-6 低风险 0.38
CDM_260906-231105-789706-252721
2026-09-06T
23:11:23+0000
2.807 km
极远距离
9.992465E-7 极低风险 0.35